TimeEST,TemperatureF,Dew PointF,Humidity,Sea Level PressureIn,VisibilityMPH,Wind Direction,Wind SpeedMPH,Gust SpeedMPH,PrecipitationIn,Events,Conditions,WindDirDegrees,DateUTC
12:15 AM,50.0,46.4,87,29.97,4.0,Calm,Calm,-,N/A,Rain,Light Rain,0,2013-01-17 05:15:00
12:35 AM,50.0,46.4,87,29.96,1.2,Calm,Calm,-,N/A,Rain,Light Rain,0,2013-01-17 05:35:00
12:55 AM,50.0,46.4,87,29.97,3.0,Calm,Calm,-,N/A,Rain,Rain,0,2013-01-17 05:55:00
1:15 AM,50.0,44.6,82,29.96,3.0,NW,4.6,-,N/A,Rain,Light Rain,310,2013-01-17 06:15:00
1:35 AM,48.2,44.6,87,29.96,3.0,NW,3.5,-,N/A,Rain,Light Rain,310,2013-01-17 06:35:00
2:15 AM,48.2,44.6,87,29.95,2.0,Calm,Calm,-,N/A,Rain,Light Rain,0,2013-01-17 07:15:00
2:35 AM,48.2,44.6,87,29.94,2.0,Calm,Calm,-,N/A,Rain,Light Rain,0,2013-01-17 07:35:00
2:55 AM,48.2,44.6,87,29.94,2.0,Calm,Calm,-,N/A,,Heavy Drizzle,0,2013-01-17 07:55:00
3:15 AM,48.2,44.6,87,29.94,2.0,Calm,Calm,-,N/A,Rain,Light Rain,0,2013-01-17 08:15:00
3:35 AM,48.2,44.6,87,29.93,1.8,Calm,Calm,-,N/A,,Heavy Drizzle,0,2013-01-17 08:35:00
3:55 AM,50.0,44.6,82,29.92,0.8,Calm,Calm,-,N/A,Rain,Light Rain,0,2013-01-17 08:55:00
4:15 AM,50.0,44.6,82,29.90,1.0,Calm,Calm,-,N/A,Rain,Light Rain,0,2013-01-17 09:15:00
4:35 AM,50.0,44.6,82,29.90,0.5,Calm,Calm,-,N/A,Rain,Light Rain,0,2013-01-17 09:35:00
4:55 AM,50.0,44.6,82,29.89,0.5,Calm,Calm,-,N/A,Rain,Light Rain,0,2013-01-17 09:55:00
5:15 AM,50.0,44.6,82,29.89,1.5,Calm,Calm,-,N/A,,Drizzle,0,2013-01-17 10:15:00
5:35 AM,50.0,46.4,87,29.89,5.0,Calm,Calm,-,N/A,,Light Drizzle,0,2013-01-17 10:35:00
5:55 AM,50.0,46.4,87,29.87,2.5,Calm,Calm,-,N/A,Rain,Rain,0,2013-01-17 10:55:00
6:15 AM,50.0,46.4,87,29.87,0.8,Calm,Calm,-,N/A,,Drizzle,0,2013-01-17 11:15:00
6:35 AM,50.0,44.6,82,29.87,0.5,Calm,Calm,-,N/A,,Drizzle,0,2013-01-17 11:35:00
6:55 AM,50.0,44.6,82,29.86,1.0,Calm,Calm,-,N/A,,Drizzle,0,2013-01-17 11:55:00
7:15 AM,50.0,46.4,87,29.86,1.0,Calm,Calm,-,N/A,Rain,Light Rain,0,2013-01-17 12:15:00
7:35 AM,50.0,44.6,82,29.86,1.0,NW,3.5,-,N/A,Rain,Rain,320,2013-01-17 12:35:00
7:55 AM,50.0,44.6,82,29.84,1.2,Calm,Calm,-,N/A,Rain,Heavy Rain,0,2013-01-17 12:55:00
8:15 AM,48.2,44.6,87,29.85,2.0,WNW,4.6,-,N/A,Rain,Rain,300,2013-01-17 13:15:00
8:35 AM,46.4,42.8,87,29.85,3.0,NW,4.6,-,N/A,Rain,Rain,310,2013-01-17 13:35:00
8:55 AM,46.4,42.8,87,29.84,1.0,NNW,3.5,-,N/A,Rain,Heavy Rain,340,2013-01-17 13:55:00
9:15 AM,46.4,42.8,87,29.83,1.2,Calm,Calm,-,N/A,Rain,Light Rain,0,2013-01-17 14:15:00
9:35 AM,46.4,42.8,87,29.85,1.0,WNW,4.6,-,N/A,Rain,Rain,300,2013-01-17 14:35:00
9:55 AM,46.4,42.8,87,29.84,2.5,NW,4.6,-,N/A,Rain,Rain,310,2013-01-17 14:55:00
10:15 AM,46.4,42.8,87,29.84,2.5,Calm,Calm,-,N/A,Rain,Rain,0,2013-01-17 15:15:00
10:35 AM,46.4,42.8,87,29.83,1.8,NW,3.5,-,N/A,Rain,Rain,310,2013-01-17 15:35:00
10:55 AM,46.4,42.8,87,29.82,5.0,Calm,Calm,-,N/A,Rain,Light Rain,0,2013-01-17 15:55:00
11:15 AM,46.4,42.8,87,29.80,1.5,Calm,Calm,-,N/A,Rain,Light Rain,0,2013-01-17 16:15:00
11:35 AM,48.2,44.6,87,29.79,7.0,Calm,Calm,-,N/A,,Overcast,0,2013-01-17 16:35:00
11:55 AM,50.0,44.6,82,29.76,0.8,Calm,Calm,-,N/A,,Overcast,0,2013-01-17 16:55:00
12:15 PM,50.0,46.4,87,29.75,0.2,South,6.9,-,N/A,Fog,Fog,190,2013-01-17 17:15:00
12:35 PM,50.0,46.4,87,29.72,0.2,South,8.1,-,N/A,Fog,Fog,180,2013-01-17 17:35:00
12:55 PM,51.8,48.2,88,29.70,10.0,South,10.4,-,N/A,,Overcast,190,2013-01-17 17:55:00
1:15 PM,50.0,46.4,87,29.72,10.0,SSW,15.0,21.9,N/A,,Overcast,210,2013-01-17 18:15:00
1:35 PM,50.0,44.6,82,29.72,2.5,SW,18.4,26.5,N/A,Rain,Heavy Rain,220,2013-01-17 18:35:00
1:55 PM,44.6,41.0,87,29.74,1.2,SW,19.6,34.5,N/A,Rain,Rain,220,2013-01-17 18:55:00
2:15 PM,42.8,39.2,87,29.74,2.0,SW,12.7,23.0,N/A,Rain,Light Rain,220,2013-01-17 19:15:00
2:35 PM,42.8,39.2,87,29.75,2.0,SW,13.8,19.6,N/A,Rain,Light Rain,220,2013-01-17 19:35:00
2:55 PM,42.8,37.4,81,29.75,3.0,SSW,11.5,17.3,N/A,,Drizzle,210,2013-01-17 19:55:00
3:15 PM,42.8,39.2,87,29.74,10.0,SW,6.9,-,N/A,,Overcast,220,2013-01-17 20:15:00
3:35 PM,42.8,39.2,87,29.74,5.0,SSW,10.4,-,N/A,Rain,Light Rain,210,2013-01-17 20:35:00
3:55 PM,42.8,39.2,87,29.75,2.0,SSW,6.9,-,N/A,,Drizzle,200,2013-01-17 20:55:00
4:15 PM,42.8,37.4,81,29.77,1.5,SW,9.2,-,N/A,,Heavy Drizzle,220,2013-01-17 21:15:00
4:35 PM,41.0,37.4,87,29.79,1.8,West,3.5,-,N/A,,Drizzle,270,2013-01-17 21:35:00
4:55 PM,41.0,37.4,87,29.80,7.0,WSW,6.9,-,N/A,Rain,Light Rain,240,2013-01-17 21:55:00
5:15 PM,41.0,37.4,87,29.84,10.0,WNW,3.5,-,N/A,,Overcast,290,2013-01-17 22:15:00
5:35 PM,41.0,35.6,81,29.86,4.0,NW,3.5,-,N/A,,Drizzle,310,2013-01-17 22:35:00
5:55 PM,41.0,35.6,81,29.89,5.0,NW,5.8,-,N/A,Rain,Light Rain,320,2013-01-17 22:55:00
6:15 PM,41.0,37.4,87,29.93,7.0,NW,5.8,-,N/A,,Overcast,320,2013-01-17 23:15:00
6:35 PM,39.2,35.6,87,29.97,7.0,NW,10.4,19.6,N/A,Rain,Light Rain,320,2013-01-17 23:35:00
6:55 PM,39.2,35.6,87,30.00,10.0,NW,8.1,-,N/A,Rain,Light Rain,320,2013-01-17 23:55:00
7:15 PM,39.2,35.6,87,30.02,10.0,NW,5.8,-,N/A,Rain,Light Rain,320,2013-01-18 00:15:00
7:35 PM,37.4,33.8,87,30.04,10.0,NW,8.1,16.1,N/A,,Overcast,320,2013-01-18 00:35:00
7:55 PM,39.2,35.6,87,30.07,10.0,NW,6.9,17.3,N/A,,Overcast,310,2013-01-18 00:55:00
8:15 PM,37.4,33.8,87,30.10,7.0,NW,11.5,20.7,N/A,,Overcast,320,2013-01-18 01:15:00
8:35 PM,37.4,33.8,87,30.10,7.0,NW,9.2,-,N/A,,Mostly Cloudy,320,2013-01-18 01:35:00
9:15 PM,37.4,33.8,87,30.16,10.0,NW,10.4,-,N/A,,Scattered Clouds,310,2013-01-18 02:15:00
9:35 PM,35.6,32.0,87,30.17,10.0,NW,5.8,-,N/A,,Clear,320,2013-01-18 02:35:00
9:55 PM,35.6,32.0,87,30.18,10.0,NW,8.1,17.3,N/A,,Clear,310,2013-01-18 02:55:00
10:15 PM,35.6,32.0,87,30.19,10.0,NW,11.5,18.4,N/A,,Clear,320,2013-01-18 03:15:00
10:35 PM,35.6,32.0,87,30.21,10.0,NW,8.1,17.3,N/A,,Clear,320,2013-01-18 03:35:00
10:55 PM,35.6,32.0,87,30.22,10.0,NW,6.9,-,N/A,,Clear,310,2013-01-18 03:55:00